Time,TemperatureF,DewpointF,PressureIn,WindDirection,WindDirectionDegrees,WindSpeedMPH,WindSpeedGustMPH,Humidity,HourlyPrecipIn,Conditions,Clouds,dailyrainin,SoftwareType,DateUTC
2013-07-14 00:08:00,60.7,56.8,29.91,WSW,248,0.0,-999.0,87,0.00,,,0.00,Wunderground v.1.15,2013-07-14 07:08:00,
2013-07-14 00:13:00,60.7,56.8,29.91,WSW,248,0.0,-999.0,87,0.00,,,0.00,Wunderground v.1.15,2013-07-14 07:13:00,
2013-07-14 00:18:00,60.7,56.8,29.91,WSW,248,0.0,-999.0,87,0.00,,,0.00,Wunderground v.1.15,2013-07-14 07:18:00,
2013-07-14 00:23:00,60.7,56.8,29.91,WSW,248,0.0,-999.0,87,0.00,,,0.00,Wunderground v.1.15,2013-07-14 07:23:00,
2013-07-14 00:28:00,60.7,56.8,29.91,WSW,248,0.0,-999.0,87,0.00,,,0.00,Wunderground v.1.15,2013-07-14 07:28:00,
2013-07-14 00:33:00,60.7,56.8,29.91,WSW,248,0.0,-999.0,87,0.00,,,0.00,Wunderground v.1.15,2013-07-14 07:33:00,
2013-07-14 00:38:00,60.7,56.8,29.91,WSW,248,0.0,-999.0,87,0.00,,,0.00,Wunderground v.1.15,2013-07-14 07:38:00,
2013-07-14 00:43:00,60.7,56.8,29.91,WSW,248,0.0,-999.0,87,0.00,,,0.00,Wunderground v.1.15,2013-07-14 07:43:00,
2013-07-14 00:48:00,60.6,56.7,29.91,WSW,248,0.0,-999.0,87,0.00,,,0.00,Wunderground v.1.15,2013-07-14 07:48:00,
2013-07-14 00:53:00,60.6,56.7,29.91,WSW,248,0.0,-999.0,87,0.00,,,0.00,Wunderground v.1.15,2013-07-14 07:53:00,
2013-07-14 00:58:00,60.6,56.7,29.91,WSW,248,0.0,-999.0,87,0.00,,,0.00,Wunderground v.1.15,2013-07-14 07:58:00,
2013-07-14 01:03:00,60.6,56.7,29.91,WSW,248,0.0,-999.0,87,0.00,,,0.00,Wunderground v.1.15,2013-07-14 08:03:00,
2013-07-14 01:08:00,60.6,56.7,29.91,WSW,248,0.0,-999.0,87,0.00,,,0.00,Wunderground v.1.15,2013-07-14 08:08:00,
2013-07-14 01:13:00,60.6,56.7,29.91,WSW,248,0.0,-999.0,87,0.00,,,0.00,Wunderground v.1.15,2013-07-14 08:13:00,
2013-07-14 01:18:00,60.4,56.8,29.91,WSW,248,0.0,-999.0,88,0.00,,,0.00,Wunderground v.1.15,2013-07-14 08:18:00,
2013-07-14 01:23:00,60.4,56.8,29.91,WSW,248,0.0,-999.0,88,0.00,,,0.00,Wunderground v.1.15,2013-07-14 08:23:00,
2013-07-14 01:28:00,60.4,56.8,29.91,WSW,248,0.0,-999.0,88,0.00,,,0.00,Wunderground v.1.15,2013-07-14 08:28:00,
2013-07-14 01:33:00,60.4,56.8,29.91,WSW,248,0.0,-999.0,88,0.00,,,0.00,Wunderground v.1.15,2013-07-14 08:33:00,
2013-07-14 01:38:00,60.4,56.8,29.91,WSW,248,0.0,-999.0,88,0.00,,,0.00,Wunderground v.1.15,2013-07-14 08:38:00,
2013-07-14 01:43:00,60.4,56.8,29.91,WSW,248,0.0,-999.0,88,0.00,,,0.00,Wunderground v.1.15,2013-07-14 08:43:00,
2013-07-14 01:48:00,59.6,56.4,29.91,N/A,-737280,0.0,-999.0,89,0.00,,,0.00,Wunderground v.1.15,2013-07-14 08:48:00,
2013-07-14 01:53:00,59.6,56.4,29.91,N/A,-737280,0.0,-999.0,89,0.00,,,0.00,Wunderground v.1.15,2013-07-14 08:53:00,
2013-07-14 01:58:00,59.6,56.4,29.91,N/A,-737280,0.0,-999.0,89,0.00,,,0.00,Wunderground v.1.15,2013-07-14 08:58:00,
2013-07-14 02:03:00,59.6,56.4,29.91,N/A,-737280,0.0,-999.0,89,0.00,,,0.00,Wunderground v.1.15,2013-07-14 09:03:00,
2013-07-14 02:08:00,59.6,56.4,29.91,N/A,-737280,0.0,-999.0,89,0.00,,,0.00,Wunderground v.1.15,2013-07-14 09:08:00,
2013-07-14 02:13:00,59.6,56.4,29.91,N/A,-737280,0.0,-999.0,89,0.00,,,0.00,Wunderground v.1.15,2013-07-14 09:13:00,
2013-07-14 02:18:00,58.8,55.6,29.90,N/A,-737280,0.0,-999.0,89,0.00,,,0.00,Wunderground v.1.15,2013-07-14 09:18:00,
2013-07-14 02:23:00,58.8,55.6,29.90,N/A,-737280,0.0,-999.0,89,0.00,,,0.00,Wunderground v.1.15,2013-07-14 09:23:00,
2013-07-14 02:28:00,58.8,55.6,29.90,N/A,-737280,0.0,-999.0,89,0.00,,,0.00,Wunderground v.1.15,2013-07-14 09:28:00,
2013-07-14 02:33:00,58.8,55.6,29.90,N/A,-737280,0.0,-999.0,89,0.00,,,0.00,Wunderground v.1.15,2013-07-14 09:33:00,
2013-07-14 02:38:00,58.8,55.6,29.90,N/A,-737280,0.0,-999.0,89,0.00,,,0.00,Wunderground v.1.15,2013-07-14 09:38:00,
2013-07-14 02:43:00,58.8,55.6,29.90,N/A,-737280,0.0,-999.0,89,0.00,,,0.00,Wunderground v.1.15,2013-07-14 09:43:00,
2013-07-14 02:48:00,58.4,55.5,29.90,N/A,-737280,0.0,-999.0,90,0.00,,,0.00,Wunderground v.1.15,2013-07-14 09:48:00,
2013-07-14 02:53:00,58.4,55.5,29.90,N/A,-737280,0.0,-999.0,90,0.00,,,0.00,Wunderground v.1.15,2013-07-14 09:53:00,
2013-07-14 02:58:00,58.4,55.5,29.90,N/A,-737280,0.0,-999.0,90,0.00,,,0.00,Wunderground v.1.15,2013-07-14 09:58:00,
2013-07-14 03:03:00,58.4,55.5,29.90,N/A,-737280,0.0,-999.0,90,0.00,,,0.00,Wunderground v.1.15,2013-07-14 10:03:00,
2013-07-14 03:08:00,58.4,55.5,29.90,N/A,-737280,0.0,-999.0,90,0.00,,,0.00,Wunderground v.1.15,2013-07-14 10:08:00,
2013-07-14 03:13:00,58.4,55.5,29.90,N/A,-737280,0.0,-999.0,90,0.00,,,0.00,Wunderground v.1.15,2013-07-14 10:13:00,
2013-07-14 03:18:00,57.9,55.0,29.90,N/A,-737280,0.0,-999.0,90,0.00,,,0.00,Wunderground v.1.15,2013-07-14 10:18:00,
2013-07-14 03:23:00,57.9,55.0,29.90,N/A,-737280,0.0,-999.0,90,0.00,,,0.00,Wunderground v.1.15,2013-07-14 10:23:00,
2013-07-14 03:28:00,57.9,55.0,29.90,N/A,-737280,0.0,-999.0,90,0.00,,,0.00,Wunderground v.1.15,2013-07-14 10:28:00,
2013-07-14 03:33:00,57.9,55.0,29.90,N/A,-737280,0.0,-999.0,90,0.00,,,0.00,Wunderground v.1.15,2013-07-14 10:33:00,
2013-07-14 03:38:00,57.9,55.0,29.90,N/A,-737280,0.0,-999.0,90,0.00,,,0.00,Wunderground v.1.15,2013-07-14 10:38:00,
2013-07-14 03:43:00,57.9,55.0,29.90,N/A,-737280,0.0,-999.0,90,0.00,,,0.00,Wunderground v.1.15,2013-07-14 10:43:00,
2013-07-14 03:48:00,57.8,55.2,29.90,N/A,-737280,0.0,-999.0,91,0.00,,,0.00,Wunderground v.1.15,2013-07-14 10:48:00,
2013-07-14 03:53:00,57.8,55.2,29.90,N/A,-737280,0.0,-999.0,91,0.00,,,0.00,Wunderground v.1.15,2013-07-14 10:53:00,
2013-07-14 03:58:00,57.8,55.2,29.90,N/A,-737280,0.0,-999.0,91,0.00,,,0.00,Wunderground v.1.15,2013-07-14 10:58:00,
2013-07-14 04:03:00,57.8,55.2,29.90,N/A,-737280,0.0,-999.0,91,0.00,,,0.00,Wunderground v.1.15,2013-07-14 11:03:00,
2013-07-14 04:08:00,57.8,55.2,29.90,N/A,-737280,0.0,-999.0,91,0.00,,,0.00,Wunderground v.1.15,2013-07-14 11:08:00,
2013-07-14 04:13:00,57.8,55.2,29.90,N/A,-737280,0.0,-999.0,91,0.00,,,0.00,Wunderground v.1.15,2013-07-14 11:13:00,
2013-07-14 04:18:00,57.2,54.6,29.90,SSE,158,0.0,-999.0,91,0.00,,,0.00,Wunderground v.1.15,2013-07-14 11:18:00,
2013-07-14 04:23:00,57.2,54.6,29.90,SSE,158,0.0,-999.0,91,0.00,,,0.00,Wunderground v.1.15,2013-07-14 11:23:00,
2013-07-14 04:28:00,57.2,54.6,29.90,SSE,158,0.0,-999.0,91,0.00,,,0.00,Wunderground v.1.15,2013-07-14 11:28:00,
2013-07-14 04:33:00,57.2,54.6,29.90,SSE,158,0.0,-999.0,91,0.00,,,0.00,Wunderground v.1.15,2013-07-14 11:33:00,
2013-07-14 04:38:00,57.2,54.6,29.90,SSE,158,0.0,-999.0,91,0.00,,,0.00,Wunderground v.1.15,2013-07-14 11:38:00,
2013-07-14 04:43:00,57.2,54.6,29.90,SSE,158,0.0,-999.0,91,0.00,,,0.00,Wunderground v.1.15,2013-07-14 11:43:00,
2013-07-14 04:48:00,56.7,54.1,29.91,SSE,158,0.0,-999.0,91,0.00,,,0.00,Wunderground v.1.15,2013-07-14 11:48:00,
2013-07-14 04:53:00,56.7,54.1,29.91,SSE,158,0.0,-999.0,91,0.00,,,0.00,Wunderground v.1.15,2013-07-14 11:53:00,
2013-07-14 04:58:00,56.7,54.1,29.91,SSE,158,0.0,-999.0,91,0.00,,,0.00,Wunderground v.1.15,2013-07-14 11:58:00,
2013-07-14 05:03:00,56.7,54.1,29.91,SSE,158,0.0,-999.0,91,0.00,,,0.00,Wunderground v.1.15,2013-07-14 12:03:00,
2013-07-14 05:08:00,56.7,54.1,29.91,SSE,158,0.0,-999.0,91,0.00,,,0.00,Wunderground v.1.15,2013-07-14 12:08:00,
2013-07-14 05:13:00,56.7,54.1,29.91,SSE,158,0.0,-999.0,91,0.00,,,0.00,Wunderground v.1.15,2013-07-14 12:13:00,
2013-07-14 05:18:00,56.7,54.4,29.91,WSW,248,0.0,-999.0,92,0.00,,,0.00,Wunderground v.1.15,2013-07-14 12:18:00,
2013-07-14 05:23:00,56.7,54.4,29.91,WSW,248,0.0,-999.0,92,0.00,,,0.00,Wunderground v.1.15,2013-07-14 12:23:00,
2013-07-14 05:28:00,56.7,54.4,29.91,WSW,248,0.0,-999.0,92,0.00,,,0.00,Wunderground v.1.15,2013-07-14 12:28:00,
2013-07-14 05:33:00,56.7,54.4,29.91,WSW,248,0.0,-999.0,92,0.00,,,0.00,Wunderground v.1.15,2013-07-14 12:33:00,
2013-07-14 05:38:00,56.7,54.4,29.91,WSW,248,0.0,-999.0,92,0.00,,,0.00,Wunderground v.1.15,2013-07-14 12:38:00,
2013-07-14 05:43:00,56.7,54.4,29.91,WSW,248,0.0,-999.0,92,0.00,,,0.00,Wunderground v.1.15,2013-07-14 12:43:00,
2013-07-14 05:48:00,56.3,54.0,29.92,WSW,248,0.0,-999.0,92,0.00,,,0.00,Wunderground v.1.15,2013-07-14 12:48:00,
2013-07-14 05:53:00,56.3,54.0,29.92,WSW,248,0.0,-999.0,92,0.00,,,0.00,Wunderground v.1.15,2013-07-14 12:53:00,
2013-07-14 05:58:00,56.3,54.0,29.92,WSW,248,0.0,-999.0,92,0.00,,,0.00,Wunderground v.1.15,2013-07-14 12:58:00,
2013-07-14 06:10:00,56.4,54.1,29.92,SW,232,0.0,0.0,92,0.00,,,0.00,Wunderground v.1.15,2013-07-14 13:10:00,
2013-07-14 06:16:00,56.8,54.8,29.93,SW,232,0.0,0.0,93,0.00,,,0.00,Wunderground v.1.15,2013-07-14 13:16:00,
2013-07-14 06:22:00,56.9,54.6,29.93,SSE,158,0.0,0.0,92,0.00,,,0.00,Wunderground v.1.15,2013-07-14 13:22:00,
2013-07-14 06:28:00,56.9,54.6,29.93,SE,139,0.0,0.0,92,0.00,,,0.00,Wunderground v.1.15,2013-07-14 13:28:00,
2013-07-14 06:34:00,57.2,55.2,29.93,SE,138,0.0,0.0,93,0.00,,,0.00,Wunderground v.1.15,2013-07-14 13:34:00,
2013-07-14 06:40:00,57.7,55.7,29.93,SE,138,0.0,0.0,93,0.00,,,0.00,Wunderground v.1.15,2013-07-14 13:40:00,
2013-07-14 06:46:00,57.9,55.6,29.93,SE,138,0.0,0.0,92,0.00,,,0.00,Wunderground v.1.15,2013-07-14 13:46:00,
2013-07-14 06:52:00,58.0,56.0,29.93,SE,138,0.0,0.0,93,0.00,,,0.00,Wunderground v.1.15,2013-07-14 13:52:00,
2013-07-14 06:58:00,58.2,56.2,29.93,SE,138,0.0,0.0,93,0.00,,,0.00,Wunderground v.1.15,2013-07-14 13:58:00,
2013-07-14 07:04:00,58.7,56.7,29.93,SW,224,0.0,0.0,93,0.00,,,0.00,Wunderground v.1.15,2013-07-14 14:04:00,
2013-07-14 07:10:00,59.3,57.3,29.93,SW,221,0.0,0.0,93,0.00,,,0.00,Wunderground v.1.15,2013-07-14 14:10:00,
2013-07-14 07:16:00,59.7,57.7,29.94,SW,221,0.0,0.0,93,0.00,,,0.00,Wunderground v.1.15,2013-07-14 14:16:00,
2013-07-14 07:22:00,60.1,58.1,29.94,North,349,0.0,0.0,93,0.00,,,0.00,Wunderground v.1.15,2013-07-14 14:22:00,
2013-07-14 07:28:00,61.1,58.8,29.94,NNW,346,0.0,2.0,92,0.00,,,0.00,Wunderground v.1.15,2013-07-14 14:28:00,
2013-07-14 07:34:00,62.2,59.2,29.94,NNE,18,0.0,1.0,90,0.00,,,0.00,Wunderground v.1.15,2013-07-14 14:34:00,